PBO Station Position Time Series. Reference Frame : NAM14
Format Version,1.1.0
4-character ID,RKMG
Station name,Ramakrishna_Mona
Begin Date, 2015-03-26
End Date, 2019-10-07
Release Date, 2019-10-08
Reference position, 33.6741269771 North Latitude, -117.6094290023 East Longitude, 377.58423 meters elevation,
Date, North (mm), East (mm), Vertical (mm), North Std. Deviation (mm), East Std. Deviation (mm),              Vertical Std. Deviation (mm), Quality,
2015-03-26,0.00, 0.00, 0.00, 1.89, 1.60, 7.32, repro,
2015-03-27,1.24, 1.90, -7.88, 1.97, 1.64, 7.66, repro,
2015-03-28,1.27, 1.76, -8.04, 1.98, 1.64, 7.67, repro,
2015-03-29,1.21, 1.10, -7.08, 2.02, 1.65, 7.78, repro,
2015-03-30,0.84, 1.50, -4.34, 2.00, 1.61, 7.57, repro,
2015-03-31,0.71, 1.32, -5.37, 2.01, 1.65, 7.75, repro,
2015-04-01,0.62, 1.13, -12.55, 1.95, 1.64, 7.59, repro,
2015-04-02,0.22, -0.51, -6.83, 1.89, 1.59, 7.34, repro,
2015-04-03,0.48, 0.36, -3.80, 1.90, 1.62, 7.43, repro,
2015-04-04,-2.18, 1.14, -6.20, 1.93, 1.66, 7.55, repro,
2015-04-05,-1.70, 1.05, -5.29, 1.89, 1.62, 7.39, repro,
2015-04-06,-2.15, -0.69, -0.85, 1.87, 1.58, 7.22, repro,
2015-04-07,-0.72, -0.11, -1.30, 1.89, 1.58, 7.32, repro,
2015-04-08,-0.86, -0.70, -2.93, 2.03, 1.72, 7.99, repro,
2015-04-09,-0.49, -0.44, -5.11, 1.88, 1.59, 7.35, repro,
2015-04-10,-0.75, -1.03, -2.46, 1.90, 1.62, 7.38, repro,
2015-04-11,0.16, -0.90, 0.79, 1.92, 1.65, 7.48, repro,
2015-04-12,2.22, 0.83, -4.23, 1.88, 1.59, 7.33, repro,
2015-04-13,1.17, -0.24, -0.69, 1.94, 1.60, 7.50, repro,
2015-04-14,1.44, -0.57, -0.45, 1.92, 1.60, 7.45, repro,
2015-04-15,0.20, 0.91, 2.02, 1.94, 1.63, 7.48, repro,
2015-04-16,0.81, -0.03, 1.64, 1.93, 1.65, 7.50, repro,
2015-04-17,0.30, 0.28, 4.27, 1.91, 1.60, 7.39, repro,
2015-04-18,0.79, 0.65, -3.10, 1.94, 1.60, 7.48, repro,
2015-04-19,0.15, -0.82, 1.67, 1.92, 1.60, 7.42, repro,
2015-04-20,-0.39, -0.46, 3.34, 1.92, 1.60, 7.40, repro,
2015-04-21,-1.89, -0.00, 2.06, 1.94, 1.58, 7.35, repro,
2015-04-22,0.30, -0.32, 6.55, 1.92, 1.57, 7.24, repro,
2015-04-23,-0.89, -1.15, -7.37, 1.89, 1.55, 7.23, repro,
2015-04-24,0.91, 0.59, -1.70, 1.90, 1.55, 7.26, repro,
2015-04-25,-0.79, 0.36, -4.30, 1.89, 1.54, 7.22, repro,
2015-04-26,2.53, 0.45, -5.49, 1.89, 1.55, 7.22, repro,
2015-04-27,0.83, -0.48, -3.01, 1.90, 1.55, 7.28, repro,
2015-04-28,1.23, -0.32, -7.03, 1.91, 1.57, 7.35, repro,
2015-04-29,0.21, 0.42, -3.60, 1.90, 1.56, 7.30, repro,
2015-04-30,2.08, -1.06, -4.63, 1.93, 1.62, 7.44, repro,
2015-05-01,1.73, -1.05, 2.55, 1.91, 1.62, 7.43, repro,
2015-05-02,1.87, -0.50, 0.27, 1.94, 1.61, 7.55, repro,
2015-05-03,1.69, -1.48, -1.53, 1.97, 1.59, 7.61, repro,
2015-05-04,1.13, -0.41, -11.12, 1.91, 1.57, 7.37, repro,
2015-05-05,0.94, -0.47, -8.92, 1.87, 1.56, 7.23, repro,
2015-05-06,2.72, -0.98, -6.91, 1.90, 1.56, 7.32, repro,
2015-05-07,1.61, -1.65, 2.47, 1.90, 1.58, 7.36, repro,
2015-05-08,0.18, -1.24, -1.61, 1.91, 1.58, 7.38, repro,
2015-05-09,1.21, -0.62, -5.02, 1.89, 1.57, 7.32, repro,
2015-05-10,1.56, -1.92, -12.94, 1.90, 1.57, 7.33, repro,
2015-05-11,3.11, -1.78, -18.31, 1.89, 1.57, 7.35, repro,
2015-05-12,-0.46, -1.45, -8.27, 1.97, 1.58, 7.58, repro,
2015-05-13,2.27, -2.05, -11.55, 1.96, 1.57, 7.53, repro,
2015-05-14,1.12, -0.86, -8.55, 1.90, 1.57, 7.36, repro,
2015-05-15,1.08, -2.53, -14.52, 1.88, 1.57, 7.30, repro,
2015-05-16,1.86, -2.01, -11.88, 1.88, 1.57, 7.26, repro,
2015-05-17,1.09, -2.63, -10.22, 1.89, 1.57, 7.34, repro,
2015-05-18,1.56, -4.08, -4.95, 1.89, 1.56, 7.27, repro,
2015-05-19,1.78, -1.56, -16.81, 1.96, 1.59, 7.59, repro,
2015-05-20,1.14, -1.62, -13.32, 1.89, 1.58, 7.35, repro,
2015-05-21,1.04, -1.92, -7.49, 1.89, 1.57, 7.26, repro,
2015-05-22,1.36, -3.90, -5.24, 1.88, 1.56, 7.22, repro,
2015-05-23,2.67, -3.47, -13.92, 1.88, 1.56, 7.23, repro,
2015-05-24,1.34, -2.87, -3.86, 1.91, 1.60, 7.37, repro,
2015-05-25,1.93, -2.69, -7.81, 1.88, 1.56, 7.20, repro,
2015-05-26,1.10, -2.31, -9.87, 1.88, 1.57, 7.22, repro,
2015-05-27,1.09, -3.04, -6.42, 1.87, 1.57, 7.23, repro,
2015-05-28,1.97, -3.33, -10.92, 1.93, 1.58, 7.46, repro,
2015-05-29,1.55, -3.12, -9.78, 1.88, 1.57, 7.26, repro,
2015-05-30,1.50, -3.28, -11.29, 1.89, 1.56, 7.24, repro,
2015-05-31,1.94, -3.08, -9.14, 1.90, 1.58, 7.34, repro,
2015-06-01,1.70, -3.18, -10.41, 1.87, 1.57, 7.18, repro,
2015-06-02,1.97, -4.54, -11.37, 1.87, 1.56, 7.21, repro,
2015-06-03,2.71, -3.39, -5.74, 1.86, 1.57, 7.20, repro,
2015-06-04,2.23, -3.31, -4.59, 1.88, 1.58, 7.25, repro,
2015-06-05,2.43, -3.24, -11.05, 1.92, 1.63, 7.37, repro,
2015-06-06,1.23, -3.58, -6.56, 1.87, 1.57, 7.17, repro,
2015-06-07,2.42, -2.68, -4.33, 1.86, 1.57, 7.17, repro,
2015-06-08,1.83, -3.30, -14.62, 1.88, 1.57, 7.23, repro,
2015-06-09,-0.45, -3.33, 4.29, 1.89, 1.60, 7.32, repro,
2015-06-10,1.47, -2.28, -0.29, 1.87, 1.58, 7.24, repro,
2015-06-11,0.42, -2.76, -12.09, 1.99, 1.63, 7.42, repro,
2015-06-12,1.05, -3.28, -5.71, 1.86, 1.56, 7.13, repro,
2015-06-13,2.10, -2.94, -2.78, 1.88, 1.57, 7.20, repro,
2015-06-14,2.18, -2.28, -3.52, 1.87, 1.57, 7.18, repro,
2015-06-15,1.01, -3.48, -8.21, 1.90, 1.61, 7.34, repro,
2015-06-16,2.56, -2.74, -10.99, 1.87, 1.58, 7.21, repro,
2015-06-17,2.88, -2.37, -11.79, 1.90, 1.62, 7.28, repro,
2015-06-18,1.41, -2.83, -8.95, 1.92, 1.66, 7.48, repro,
2015-06-19,3.13, -3.22, -5.47, 1.91, 1.63, 7.41, repro,
2015-06-20,2.79, -1.87, -2.21, 1.90, 1.61, 7.29, repro,
2015-06-21,2.46, -2.73, -6.32, 1.86, 1.57, 7.14, repro,
2015-06-22,2.67, -3.74, -6.16, 1.87, 1.58, 7.17, repro,
2015-06-23,2.14, -3.18, -5.77, 1.99, 1.62, 7.46, repro,
2015-06-24,0.84, -3.66, 3.53, 1.94, 1.61, 7.37, repro,
2015-06-25,2.15, -4.69, -8.18, 1.91, 1.62, 7.28, repro,
2015-06-26,2.67, -5.31, -6.13, 1.95, 1.62, 7.44, repro,
2015-06-27,3.47, -3.31, -10.39, 1.89, 1.60, 7.24, repro,
2015-06-28,1.38, -3.86, -9.37, 1.87, 1.59, 7.17, repro,
2015-06-29,4.22, -3.54, -2.53, 1.87, 1.59, 7.17, repro,
2015-06-30,2.02, -2.42, -7.63, 1.98, 1.62, 7.54, repro,
2015-07-01,1.54, -4.18, 5.65, 1.95, 1.61, 7.53, repro,
2015-07-02,2.28, -4.77, -7.11, 1.95, 1.62, 7.54, repro,
2015-07-03,2.19, -4.53, -11.67, 1.87, 1.59, 7.20, repro,
2015-07-04,-0.28, -3.95, -9.30, 1.88, 1.59, 7.21, repro,
2015-07-05,1.79, -3.74, -6.34, 1.88, 1.58, 7.19, repro,
2015-07-06,0.77, -4.45, -5.25, 1.88, 1.58, 7.19, repro,
2015-07-07,1.82, -4.89, -0.72, 1.88, 1.59, 7.25, repro,
2015-07-08,2.06, -5.15, -7.98, 1.90, 1.63, 7.28, repro,
2015-07-09,1.65, -4.67, -0.80, 1.87, 1.57, 7.14, repro,
2015-07-10,1.43, -4.18, 0.76, 1.91, 1.62, 7.24, repro,
2015-07-11,1.40, -3.74, -3.47, 1.91, 1.62, 7.22, repro,
2015-07-12,1.71, -4.80, -0.90, 1.89, 1.59, 7.28, repro,
2015-07-13,1.43, -6.40, 6.12, 1.88, 1.58, 7.17, repro,
2015-07-14,2.26, -4.29, -1.79, 1.91, 1.63, 7.25, repro,
2015-07-15,1.71, -3.90, -0.65, 1.88, 1.57, 7.16, repro,
2015-07-16,1.41, -4.17, 1.37, 1.93, 1.68, 7.41, repro,
2015-07-17,1.21, -5.17, -1.87, 1.89, 1.60, 7.29, repro,
2015-07-18,0.48, -3.75, 2.52, 1.88, 1.59, 7.23, repro,
2015-07-19,1.03, -3.49, 5.97, 1.89, 1.59, 7.24, repro,
2015-07-20,2.47, -3.18, -4.46, 1.89, 1.58, 7.20, repro,
2015-07-21,0.64, -5.98, -0.29, 1.86, 1.58, 7.10, repro,
2015-07-22,1.23, -5.94, 1.54, 1.88, 1.59, 7.15, repro,
2015-07-23,0.66, -4.60, -1.88, 1.88, 1.59, 7.20, repro,
2015-07-24,2.59, -5.04, -1.92, 1.89, 1.58, 7.22, repro,
2015-07-25,1.56, -5.89, -5.72, 1.87, 1.59, 7.21, repro,
2015-07-26,1.03, -5.58, 0.40, 1.90, 1.63, 7.20, repro,
2015-07-27,2.90, -5.68, -2.16, 1.86, 1.57, 7.06, repro,
2015-07-28,1.61, -5.34, 0.32, 1.93, 1.60, 7.41, repro,
2015-07-29,1.47, -3.66, -6.69, 2.00, 1.67, 7.63, repro,
2015-07-30,1.00, -3.05, 4.39, 1.89, 1.60, 7.25, repro,
2015-07-31,3.05, -6.53, 0.14, 1.91, 1.63, 7.25, repro,
2015-08-01,1.18, -5.73, -0.03, 1.86, 1.57, 7.10, repro,
2015-08-02,3.68, -5.67, -0.81, 1.89, 1.59, 7.19, repro,
2015-08-03,3.28, -6.47, -3.39, 1.91, 1.61, 7.32, repro,
2015-08-04,1.62, -5.19, -5.05, 1.91, 1.64, 7.47, repro,
2015-08-05,-0.10, -4.80, 2.39, 1.90, 1.63, 7.38, repro,
2015-08-06,1.94, -7.49, 0.97, 1.91, 1.63, 7.39, repro,
2015-08-07,1.35, -4.75, 2.75, 1.91, 1.62, 7.34, repro,
2015-08-08,2.50, -4.76, 6.67, 1.93, 1.65, 7.40, repro,
2015-08-09,1.09, -6.17, 6.96, 2.00, 1.74, 7.73, repro,
2015-08-10,0.83, -6.10, -4.11, 1.90, 1.64, 7.38, repro,
2015-08-11,2.16, -6.38, -1.10, 1.89, 1.63, 7.34, repro,
2015-08-12,1.89, -6.11, -5.23, 1.87, 1.59, 7.18, repro,
2015-08-13,0.79, -5.68, 3.81, 1.90, 1.65, 7.39, repro,
2015-08-14,3.17, -6.62, -0.49, 1.87, 1.60, 7.19, repro,
2015-08-15,2.98, -6.58, 3.02, 1.91, 1.65, 7.35, repro,
2015-08-16,1.45, -7.16, 6.24, 1.91, 1.66, 7.39, repro,
2015-08-17,2.87, -4.11, -0.19, 1.88, 1.60, 7.27, repro,
2015-08-18,1.78, -7.33, 4.05, 1.87, 1.59, 7.23, repro,
2015-08-19,2.55, -6.51, 4.60, 1.87, 1.60, 7.20, repro,
2015-08-20,1.51, -5.79, -0.29, 1.86, 1.60, 7.20, repro,
2015-08-21,2.75, -5.92, 0.78, 1.88, 1.61, 7.28, repro,
2015-08-22,2.65, -7.15, -5.55, 1.88, 1.60, 7.31, repro,
2015-08-23,1.83, -6.24, -0.09, 1.95, 1.65, 7.42, repro,
2015-08-24,3.06, -6.01, -4.91, 1.91, 1.65, 7.34, repro,
2015-08-25,2.99, -6.33, -3.96, 1.91, 1.68, 7.46, repro,
2015-08-26,1.92, -4.29, -4.84, 1.88, 1.60, 7.27, repro,
2015-08-27,2.37, -4.89, -2.34, 1.93, 1.69, 7.47, repro,
2015-08-28,1.12, -7.81, 2.13, 1.86, 1.59, 7.18, repro,
2015-08-29,3.26, -5.10, 1.38, 1.88, 1.61, 7.27, repro,
2015-08-30,1.59, -6.55, 6.68, 1.88, 1.60, 7.22, repro,
2015-08-31,3.27, -7.63, 2.10, 1.87, 1.60, 7.26, repro,
2015-09-01,2.60, -7.60, 7.54, 1.93, 1.63, 7.42, repro,
2015-09-02,2.41, -7.02, 6.53, 1.93, 1.64, 7.45, repro,
2015-09-03,1.78, -6.62, 6.58, 1.88, 1.62, 7.30, repro,
2015-09-04,2.10, -7.29, -0.33, 1.88, 1.61, 7.27, repro,
2015-09-05,0.40, -6.61, -4.30, 1.88, 1.60, 7.23, repro,
2015-09-06,3.64, -7.19, -2.77, 1.95, 1.62, 7.56, repro,
2015-09-07,1.70, -7.54, -0.52, 1.95, 1.63, 7.57, repro,
2015-09-08,1.90, -7.42, -5.41, 1.94, 1.62, 7.54, repro,
2015-09-09,2.52, -5.63, -6.39, 2.05, 1.75, 8.06, repro,
2015-09-10,1.97, -7.03, 3.12, 1.97, 1.65, 7.62, repro,
2015-09-11,3.16, -7.16, 2.86, 2.03, 1.68, 7.77, repro,
2015-09-12,3.03, -8.13, 1.18, 2.02, 1.78, 7.92, repro,
2015-09-13,1.86, -6.56, 2.44, 1.94, 1.64, 7.54, repro,
2015-09-14,1.16, -7.81, 3.64, 1.96, 1.67, 7.59, repro,
2015-09-15,3.11, -6.42, -0.07, 1.98, 1.66, 7.75, repro,
2015-09-16,4.83, -8.18, 4.60, 1.95, 1.63, 7.53, repro,
2015-09-17,4.60, -7.80, -3.37, 1.95, 1.63, 7.56, repro,
2015-09-18,4.00, -9.14, -6.67, 1.94, 1.63, 7.55, repro,
2015-09-19,5.53, -7.26, 1.70, 1.94, 1.60, 7.51, repro,
2015-09-20,6.36, -7.45, -2.07, 1.93, 1.60, 7.46, repro,
2015-09-21,2.40, -8.21, 8.74, 1.96, 1.63, 7.62, repro,
2015-09-22,3.79, -7.93, 3.22, 1.96, 1.63, 7.58, repro,
2015-09-23,4.51, -7.79, -8.49, 1.99, 1.65, 7.68, repro,
2015-09-24,4.39, -7.41, -6.03, 1.96, 1.64, 7.59, repro,
2015-09-25,4.49, -7.77, 2.14, 1.95, 1.61, 7.57, repro,
2015-09-26,4.37, -7.68, 1.97, 1.93, 1.60, 7.48, repro,
2015-09-27,4.64, -9.08, 0.65, 1.98, 1.64, 7.63, repro,
2015-09-28,4.81, -8.63, 5.68, 2.05, 1.68, 7.90, repro,
2015-09-29,2.87, -9.20, -2.61, 1.97, 1.66, 7.67, repro,
2015-09-30,4.73, -8.35, 4.72, 2.06, 1.70, 8.09, repro,
2015-10-01,4.63, -7.41, -0.49, 2.05, 1.69, 8.05, repro,
2015-10-02,4.09, -6.79, -4.83, 1.97, 1.69, 7.72, repro,
2015-10-03,3.88, -8.31, -4.85, 1.97, 1.66, 7.66, repro,
2015-10-04,2.65, -8.81, 7.22, 1.99, 1.68, 7.77, repro,
2015-10-05,2.03, -9.17, -1.26, 2.03, 1.73, 7.90, repro,
2015-10-06,5.99, -7.53, -5.94, 1.96, 1.64, 7.68, repro,
2015-10-07,5.88, -7.74, -14.24, 1.97, 1.65, 7.69, repro,
2015-10-08,4.48, -5.88, -2.15, 2.01, 1.71, 7.81, repro,
2015-10-09,4.05, -9.92, 10.25, 2.03, 1.74, 7.90, repro,
2015-10-10,3.24, -7.65, 4.99, 2.03, 1.74, 8.01, repro,
2015-10-11,4.42, -7.70, -1.27, 2.03, 1.72, 8.00, repro,
2015-10-12,4.37, -8.21, 7.60, 2.05, 1.75, 8.15, repro,
2015-10-13,5.68, -6.34, 0.93, 2.10, 1.81, 8.28, repro,
2015-10-14,3.21, -7.74, 4.14, 2.11, 1.80, 8.43, repro,
2015-10-15,1.68, -8.78, 3.33, 2.18, 1.87, 8.54, repro,
2015-10-16,3.22, -9.12, -6.81, 2.18, 1.95, 8.96, repro,
2015-10-17,4.47, -7.13, -0.28, 2.23, 2.00, 9.12, repro,
2015-10-18,3.15, -7.70, 1.95, 2.27, 1.92, 9.10, repro,
2015-10-19,2.82, -8.82, 0.73, 2.19, 1.91, 8.83, repro,
2015-10-20,2.84, -9.12, 9.52, 2.27, 2.08, 9.51, repro,
2015-10-21,2.31, -8.70, -4.27, 2.21, 1.96, 8.83, repro,
2015-10-22,3.96, -9.68, 4.03, 2.20, 1.90, 8.76, repro,
2015-10-23,2.60, -6.35, -3.93, 2.18, 1.89, 8.87, repro,
2015-10-24,2.40, -8.96, 15.68, 2.23, 2.02, 9.28, repro,
2015-10-25,3.60, -8.46, 0.67, 2.25, 1.91, 8.87, repro,
2015-10-26,2.70, -7.39, 3.03, 2.21, 1.98, 9.05, repro,
2015-10-27,2.10, -9.41, 6.24, 2.30, 2.03, 9.35, repro,
2015-10-28,2.27, -8.49, 11.96, 2.15, 1.95, 8.97, repro,
2015-10-29,3.17, -6.68, 6.37, 2.20, 1.95, 8.88, repro,
2015-10-30,6.91, -5.85, -18.27, 2.23, 1.97, 9.33, repro,
2015-10-31,8.54, -5.69, -4.33, 2.21, 1.90, 9.02, repro,
2015-11-01,3.62, -7.72, 4.56, 2.18, 1.90, 8.79, repro,
2015-11-02,2.45, -8.63, 2.22, 2.17, 1.91, 8.84, repro,
2015-11-03,1.85, -8.05, 2.09, 2.22, 2.00, 9.00, repro,
2015-11-04,2.19, -8.27, 7.73, 2.39, 2.14, 9.82, repro,
2015-11-05,5.10, -9.26, 3.28, 2.24, 1.97, 9.10, repro,
2015-11-06,3.73, -8.58, -2.31, 2.23, 1.96, 9.09, repro,
2015-11-07,3.70, -8.48, 8.80, 2.46, 2.09, 10.31, repro,
2015-11-08,3.44, -10.12, 2.24, 3.24, 2.70, 12.93, repro,
2015-11-09,2.48, -10.94, 3.43, 2.30, 2.10, 9.64, repro,
2015-11-10,3.65, -8.38, 4.62, 2.31, 2.01, 9.34, repro,
2015-11-11,2.50, -10.03, 8.43, 2.28, 2.04, 9.18, repro,
2015-11-12,3.42, -8.98, 0.88, 2.29, 2.10, 9.32, repro,
2015-11-13,4.40, -9.45, 2.93, 2.21, 1.93, 9.11, repro,
2015-11-14,1.91, -9.08, -5.91, 2.23, 2.01, 9.08, repro,
2015-11-15,0.78, -10.67, 6.37, 2.43, 2.12, 9.87, repro,
2015-11-16,3.25, -10.49, 2.88, 2.22, 2.02, 9.10, repro,
2015-11-17,5.15, -8.72, -0.18, 2.28, 2.03, 9.12, repro,
2015-11-18,3.31, -9.23, 9.74, 2.31, 2.05, 9.32, repro,
2015-11-19,5.00, -9.73, 4.16, 1.88, 1.65, 7.35, repro,
2015-11-20,4.83, -9.44, -2.14, 1.88, 1.64, 7.33, repro,
2015-11-21,4.48, -9.21, -1.04, 1.86, 1.62, 7.31, repro,
2015-11-22,5.87, -8.58, 3.01, 1.89, 1.65, 7.39, repro,
2015-11-23,5.43, -9.51, 1.42, 1.89, 1.65, 7.44, repro,
2015-11-24,5.54, -9.67, -1.03, 1.87, 1.62, 7.30, repro,
2015-11-25,5.33, -9.09, -5.98, 1.87, 1.62, 7.35, repro,
2015-11-26,5.25, -11.05, -6.16, 1.86, 1.62, 7.29, repro,
2015-11-27,4.68, -10.70, -10.64, 2.19, 2.12, 9.00, repro,
2015-11-28,4.46, -10.51, -2.68, 1.87, 1.64, 7.31, repro,
2015-11-29,5.02, -9.74, -5.61, 1.86, 1.64, 7.29, repro,
2015-11-30,6.61, -10.75, -6.16, 1.88, 1.66, 7.41, repro,
2015-12-01,6.01, -8.51, -12.70, 1.87, 1.61, 7.38, repro,
2015-12-02,5.22, -9.01, -7.45, 1.86, 1.62, 7.27, repro,
2015-12-03,4.50, -9.83, -1.18, 1.87, 1.64, 7.38, repro,
2015-12-04,4.31, -10.38, -5.83, 1.87, 1.66, 7.39, repro,
2015-12-05,3.09, -8.81, -1.98, 2.76, 2.77, 11.83, repro,
2015-12-06,5.52, -8.52, -6.86, 1.84, 1.60, 7.29, repro,
2015-12-07,5.72, -9.38, -5.78, 1.90, 1.63, 7.48, repro,
2015-12-08,4.69, -9.19, -2.04, 1.87, 1.66, 7.52, repro,
2015-12-09,5.35, -9.56, 1.03, 1.89, 1.71, 7.56, repro,
2015-12-10,4.66, -11.51, 1.27, 1.89, 1.71, 7.55, repro,
2015-12-11,4.00, -11.18, -0.83, 1.90, 1.70, 7.55, repro,
2015-12-12,5.38, -11.43, -5.85, 1.86, 1.63, 7.38, repro,
2015-12-13,4.88, -11.41, -1.99, 1.85, 1.64, 7.37, repro,
2015-12-14,3.33, -11.58, -7.34, 1.91, 1.65, 7.44, repro,
2015-12-15,5.27, -11.32, -2.53, 1.87, 1.67, 7.40, repro,
2015-12-16,2.30, -10.70, 8.69, 1.85, 1.60, 7.28, repro,
2015-12-17,4.81, -9.27, -3.35, 1.93, 1.66, 7.58, repro,
2015-12-18,6.16, -10.70, -5.88, 1.92, 1.59, 7.43, repro,
2015-12-19,5.98, -11.15, -9.13, 1.85, 1.60, 7.30, repro,
2015-12-20,7.06, -11.02, -4.40, 1.87, 1.61, 7.31, repro,
2015-12-21,6.32, -10.16, -3.29, 1.88, 1.66, 7.40, repro,
2015-12-22,5.84, -11.09, 2.05, 1.84, 1.58, 7.20, repro,
2015-12-23,6.06, -10.88, 4.46, 1.83, 1.57, 7.11, repro,
2015-12-24,5.47, -10.61, 0.95, 1.86, 1.60, 7.26, repro,
2015-12-25,5.41, -11.40, 0.28, 1.85, 1.59, 7.18, repro,
2015-12-26,7.57, -7.56, -29.52, 1.85, 1.62, 7.31, repro,
2015-12-27,5.17, -9.55, -14.35, 1.84, 1.58, 7.18, repro,
2015-12-28,5.34, -9.56, -6.14, 1.82, 1.57, 7.10, repro,
2015-12-29,4.63, -10.09, -12.03, 1.86, 1.60, 7.21, repro,
2015-12-30,5.58, -10.73, -9.10, 1.85, 1.59, 7.21, repro,
2015-12-31,6.73, -9.85, -6.12, 1.89, 1.65, 7.38, repro,
2016-01-01,6.11, -9.12, -3.52, 1.85, 1.62, 7.26, repro,
2016-01-02,5.60, -8.30, -5.57, 1.93, 1.66, 7.54, repro,
2016-01-03,5.85, -9.35, -6.37, 1.86, 1.64, 7.27, repro,
2016-01-04,5.49, -10.56, -1.98, 1.84, 1.59, 7.19, repro,
2016-01-05,5.28, -11.34, 0.36, 1.87, 1.59, 7.23, repro,
2016-01-06,5.51, -10.93, -5.71, 1.85, 1.61, 7.23, repro,
2016-01-07,5.97, -11.02, -8.08, 1.88, 1.65, 7.40, repro,
2016-01-08,7.26, -10.23, -15.37, 1.89, 1.65, 7.37, repro,
2016-01-09,7.88, -10.28, -7.51, 1.89, 1.63, 7.33, repro,
2016-01-10,7.56, -10.96, -8.29, 1.85, 1.59, 7.25, repro,
2016-01-11,5.53, -12.46, -4.81, 1.83, 1.59, 7.18, repro,
2016-01-12,7.12, -9.99, -6.28, 1.87, 1.66, 7.34, repro,
2016-01-13,8.11, -9.87, -11.58, 1.84, 1.60, 7.21, repro,
2016-01-14,6.71, -10.85, -9.40, 1.84, 1.58, 7.11, repro,
2016-01-15,7.03, -9.54, -14.67, 1.89, 1.63, 7.26, repro,
2016-01-16,6.84, -10.95, -9.70, 1.86, 1.60, 7.21, repro,
2016-01-17,7.32, -10.32, -7.70, 1.84, 1.60, 7.18, repro,
2016-01-18,8.04, -10.48, -12.94, 1.87, 1.66, 7.35, repro,
2016-01-19,8.74, -9.34, -12.94, 1.85, 1.61, 7.19, repro,
2016-01-20,8.75, -9.84, -11.52, 1.86, 1.60, 7.17, repro,
2016-01-21,7.48, -9.09, -11.75, 1.87, 1.61, 7.31, repro,
2016-01-22,7.07, -10.31, -6.35, 1.88, 1.64, 7.30, repro,
2016-01-23,6.58, -9.30, -2.91, 1.86, 1.60, 7.18, repro,
2016-01-24,7.66, -11.31, -14.09, 1.87, 1.60, 7.22, repro,
2016-01-25,7.27, -10.19, -5.80, 1.89, 1.62, 7.40, repro,
2016-01-26,7.16, -11.58, 2.26, 1.87, 1.60, 7.32, repro,
2016-01-27,6.97, -11.03, -5.51, 2.01, 1.77, 8.08, repro,
2016-01-28,7.89, -10.25, -11.30, 1.92, 1.65, 7.50, repro,
2016-01-29,8.06, -9.70, -12.14, 1.93, 1.62, 7.56, repro,
2016-01-30,8.22, -10.43, -2.04, 1.88, 1.63, 7.37, repro,
2016-01-31,7.36, -11.37, 0.53, 1.95, 1.65, 7.56, repro,
2016-02-01,8.18, -9.11, -6.82, 1.88, 1.64, 7.40, repro,
2016-02-02,7.72, -10.79, -11.20, 1.88, 1.63, 7.37, repro,
2016-02-03,7.23, -9.48, -13.18, 1.91, 1.67, 7.46, repro,
2016-02-04,7.52, -8.82, -14.01, 1.87, 1.62, 7.33, repro,
2016-02-05,8.22, -10.12, -12.53, 1.88, 1.62, 7.37, repro,
2016-02-06,7.22, -9.77, -11.95, 1.87, 1.62, 7.34, repro,
2016-02-07,7.60, -9.08, -14.65, 1.86, 1.61, 7.27, repro,
2016-02-08,7.77, -8.59, -12.10, 1.88, 1.62, 7.36, repro,
2016-02-09,8.04, -9.27, -9.18, 1.87, 1.62, 7.31, repro,
2016-02-10,7.31, -8.73, -8.23, 1.88, 1.63, 7.38, repro,
2016-02-11,7.87, -9.50, -9.16, 1.88, 1.61, 7.33, repro,
2016-02-12,6.51, -9.69, -16.29, 1.89, 1.60, 7.27, repro,
2016-02-13,5.67, -9.89, -12.66, 1.87, 1.61, 7.28, repro,
2016-02-14,5.32, -10.91, -9.11, 1.87, 1.60, 7.25, repro,
2016-02-15,3.83, -9.72, 1.03, 1.88, 1.60, 7.25, repro,
2016-02-16,6.13, -11.73, -10.33, 1.89, 1.62, 7.39, repro,
2016-02-17,5.57, -10.11, -6.97, 1.88, 1.61, 7.32, repro,
2016-02-18,5.51, -9.96, 2.03, 1.87, 1.60, 7.29, repro,
2016-02-19,5.01, -8.89, -9.16, 1.86, 1.60, 7.24, repro,
2016-02-20,6.13, -8.48, -3.83, 1.87, 1.60, 7.27, repro,
2016-02-21,6.28, -8.94, -12.69, 1.89, 1.60, 7.27, repro,
2016-02-22,4.25, -9.97, -11.23, 1.89, 1.62, 7.34, repro,
2016-02-23,5.28, -9.36, -14.57, 1.87, 1.60, 7.23, repro,
2016-02-24,4.50, -8.83, -9.20, 1.87, 1.61, 7.27, repro,
2016-02-25,4.62, -8.27, -9.92, 1.87, 1.60, 7.28, repro,
2016-02-26,5.34, -7.95, -9.92, 1.92, 1.66, 7.55, repro,
2016-02-27,5.75, -8.85, -9.33, 1.88, 1.62, 7.30, repro,
2016-02-28,4.76, -10.07, -12.80, 1.89, 1.66, 7.40, repro,
2016-02-29,4.96, -8.60, -16.54, 1.89, 1.65, 7.33, repro,
2016-03-01,4.75, -7.75, -7.91, 1.87, 1.62, 7.27, repro,
2016-03-02,5.16, -8.06, -11.48, 1.88, 1.60, 7.25, repro,
2016-03-03,4.60, -9.03, -14.34, 1.88, 1.62, 7.28, repro,
2016-03-04,4.57, -9.50, -13.35, 1.90, 1.65, 7.34, repro,
2016-03-05,4.63, -8.98, -13.45, 1.89, 1.66, 7.40, repro,
2016-03-06,3.56, -9.08, -13.05, 1.88, 1.62, 7.28, repro,
2016-03-07,3.94, -9.58, -9.95, 1.92, 1.67, 7.45, repro,
2016-03-08,8.25, -10.26, -11.67, 1.97, 1.70, 7.65, repro,
2016-03-09,5.35, -10.00, -10.80, 1.88, 1.63, 7.27, repro,
2016-03-10,5.92, -9.18, -7.63, 1.85, 1.61, 7.09, repro,
2016-03-11,4.26, -8.17, -10.30, 1.86, 1.63, 7.15, repro,
2016-03-12,4.89, -9.90, -13.78, 1.82, 1.60, 7.01, repro,
2016-03-13,5.67, -8.62, -9.51, 1.85, 1.62, 7.12, repro,
2016-03-14,5.65, -8.66, -11.16, 1.88, 1.66, 7.20, repro,
2016-03-15,5.24, -9.50, -14.99, 1.89, 1.68, 7.22, repro,
2016-03-16,4.96, -7.83, -14.11, 1.92, 1.72, 7.32, repro,
2016-03-17,5.26, -8.64, -10.49, 1.89, 1.67, 7.25, repro,
2016-03-18,5.31, -8.45, -10.54, 1.96, 1.67, 7.39, repro,
2016-03-19,5.33, -8.91, -12.61, 1.89, 1.62, 7.19, repro,
2016-03-20,5.28, -9.22, -19.81, 1.85, 1.60, 7.07, repro,
2016-03-21,5.88, -8.55, -20.07, 1.85, 1.60, 7.03, repro,
2016-03-22,4.68, -9.42, -10.91, 1.86, 1.61, 7.05, repro,
2016-03-23,4.61, -10.30, -9.30, 1.86, 1.64, 7.12, repro,
2016-03-24,5.49, -8.57, -9.60, 1.85, 1.60, 7.03, repro,
2016-03-25,5.99, -8.69, -3.44, 1.85, 1.60, 7.08, repro,
2016-03-26,5.12, -9.40, -10.64, 1.84, 1.60, 7.06, repro,
2016-03-27,4.38, -9.17, -14.61, 1.85, 1.61, 7.08, repro,
2016-03-28,5.61, -8.66, -10.82, 1.84, 1.60, 7.04, repro,
2016-03-29,4.04, -8.44, -6.37, 1.87, 1.62, 7.21, repro,
2016-03-30,4.14, -8.97, -3.55, 1.85, 1.61, 7.07, repro,
2016-03-31,6.25, -8.50, -8.37, 1.86, 1.63, 7.17, repro,
2016-04-01,5.43, -8.51, -12.34, 1.84, 1.60, 7.05, repro,
2016-04-02,6.34, -7.59, -10.04, 1.86, 1.62, 7.10, repro,
2016-04-03,6.59, -7.29, -10.51, 1.83, 1.59, 6.94, repro,
2016-04-04,6.66, -9.36, -10.92, 1.83, 1.61, 7.04, repro,
2016-04-05,5.95, -9.27, -11.73, 1.85, 1.61, 7.07, repro,
2016-04-06,5.07, -9.37, -10.47, 1.85, 1.61, 7.11, repro,
2016-04-07,4.99, -9.56, -6.93, 1.87, 1.67, 7.27, repro,
2016-04-08,5.34, -8.61, -11.31, 1.84, 1.61, 7.04, repro,
2016-04-09,5.79, -10.71, -8.75, 1.84, 1.60, 6.98, repro,
2016-04-10,5.64, -9.41, -2.05, 1.84, 1.60, 7.03, repro,
2016-04-11,7.06, -10.23, -10.49, 1.85, 1.62, 7.09, repro,
2016-04-12,6.80, -8.47, -16.42, 1.86, 1.60, 7.06, repro,
2016-04-13,6.05, -8.82, -7.44, 1.88, 1.62, 7.23, repro,
2016-04-14,6.62, -9.05, -9.66, 1.84, 1.61, 7.04, repro,
2016-04-15,8.03, -9.75, -7.72, 1.83, 1.61, 7.01, repro,
2016-04-16,8.37, -9.05, -14.03, 1.84, 1.61, 7.02, repro,
2016-04-17,10.33, -10.07, -5.87, 2.16, 2.00, 8.75, repro,
2016-04-18,7.63, -8.90, -6.26, 1.85, 1.61, 7.10, repro,
2016-04-19,8.26, -9.71, -5.91, 1.88, 1.61, 7.26, repro,
2016-04-20,6.45, -9.33, -6.35, 1.88, 1.63, 7.32, repro,
2016-04-21,5.75, -9.43, -8.68, 1.83, 1.61, 7.02, repro,
2016-04-22,6.29, -9.78, -6.39, 1.89, 1.68, 7.26, repro,
2016-04-23,6.16, -10.17, -13.53, 1.85, 1.60, 7.07, repro,
2016-04-24,6.84, -9.73, -9.32, 1.85, 1.60, 7.05, repro,
2016-04-25,7.52, -10.61, 0.48, 1.84, 1.61, 7.09, repro,
2016-04-26,5.78, -10.94, -5.54, 1.88, 1.64, 7.18, repro,
2016-04-27,5.84, -10.80, 0.25, 1.84, 1.60, 7.05, repro,
2016-04-28,5.79, -9.93, -7.64, 1.83, 1.59, 7.01, repro,
2016-04-29,7.95, -9.94, -14.31, 1.86, 1.62, 7.11, repro,
2016-04-30,8.38, -9.51, -13.93, 1.85, 1.61, 7.09, repro,
2016-05-01,8.25, -10.14, -12.61, 1.84, 1.60, 7.06, repro,
2016-05-02,8.83, -10.09, -15.64, 1.89, 1.64, 7.33, repro,
2016-05-03,7.77, -9.35, -12.05, 1.86, 1.61, 7.14, repro,
2016-05-04,6.48, -10.94, -10.92, 1.88, 1.63, 7.22, repro,
2016-05-05,6.63, -11.21, -13.60, 1.97, 1.71, 7.63, repro,
2016-05-06,6.57, -11.11, -2.35, 1.92, 1.63, 7.35, repro,
2016-05-07,7.08, -11.31, -6.51, 1.87, 1.65, 7.21, repro,
2016-05-08,5.84, -10.59, -5.52, 1.87, 1.64, 7.15, repro,
2016-05-09,5.22, -9.64, -9.74, 1.84, 1.59, 6.98, repro,
2016-05-10,6.44, -10.30, -12.61, 1.83, 1.59, 6.98, repro,
2016-05-11,6.47, -9.26, -12.04, 1.84, 1.61, 7.03, repro,
2016-05-12,6.75, -8.94, -9.92, 1.85, 1.61, 7.06, repro,
2016-05-13,5.62, -10.12, -12.17, 1.84, 1.61, 7.03, repro,
2016-05-14,5.61, -10.36, -8.22, 1.84, 1.60, 7.01, repro,
2016-05-15,5.84, -8.96, -0.91, 1.85, 1.61, 7.04, repro,
2016-05-16,6.13, -8.99, -2.31, 1.86, 1.62, 7.14, repro,
2016-05-17,6.43, -9.86, -5.71, 1.85, 1.60, 7.04, repro,